Location: Coffee Creek Observatory
(38.8077°N, 94.7179°W)
Time: 19:09:32
(UTC-06:00)

Amateur Radio Satellites - All Passes

Search period start: 28 November 2014 18:39
Search period end: 29 November 2014 18:39
Location: Coffee Creek Observatory, 38.8077°N, 94.7179°W

Satellite Date Start Highest point End Downlink Frequencies (MHz)
Time Altitude Azimuth
MOZHAYETS 4 28 Nov 18:39:52 18:42:41 16° 295° (WNW) 18:45:31
PRISM 28 Nov 18:46:22 18:50:34 64° 286° (WNW) 18:54:43 437.425
CUBESAT XI-V 28 Nov 18:51:06 18:55:39 52° 99° (E) 19:00:08 437.345
CUTE-I 28 Nov 18:52:11 18:56:33 25° 265° (W) 19:00:57 437.470
STRAND 1 28 Nov 18:54:29 18:59:27 50° 100° (E) 19:04:23 437.568
BEESAT 3 28 Nov 19:06:33 19:10:24 42° 116° (ESE) 19:14:21 437.485
HO-68 28 Nov 19:10:49 19:16:40 28° 61° (ENE) 19:22:32 435.675
BEESAT 2 28 Nov 19:24:18 19:28:20 61° 118° (ESE) 19:32:27 435.950
BRITE-PL 28 Nov 19:31:25 19:34:55 20° 68° (ENE) 19:38:15 437.365/2234.400
SEEDS 28 Nov 19:37:35 19:40:22 18° 67° (ENE) 19:43:10 437.485
AAUSAT CUBESAT 2 28 Nov 19:48:19 19:51:02 17° 67° (ENE) 19:53:45 437.432
Oscar 11 28 Nov 19:57:16 19:58:35 11° 63° (ENE) 19:59:54 145.826/435.025
AIST 1 28 Nov 20:00:10 20:04:22 44° 281° (W) 20:08:37
COMPASS 1 28 Nov 20:04:44 20:08:20 29° 70° (ENE) 20:11:59 437.405
CANX-2 28 Nov 20:08:28 20:12:32 49° 74° (ENE) 20:16:38 2200.000
PHONESAT 2.4 28 Nov 20:09:53 20:11:19 12° 217° (SW) 20:12:46 2401.200-2431.200
AIST 2 28 Nov 20:12:08 20:16:21 84° 301° (WNW) 20:20:40 435.215
PCSat 28 Nov 20:15:52 20:20:34 30° 308° (NW) 20:25:18 145.827
GONETS M04 28 Nov 20:16:32 20:24:56 51° 271° (W) 20:33:16
GOMX 1 28 Nov 20:24:20 20:28:53 50° 74° (ENE) 20:33:10 467.674
DX 1 28 Nov 20:24:42 20:28:02 22° 67° (ENE) 20:31:23 434.975-435.025
UWE-3 28 Nov 20:29:32 20:31:19 13° 65° (ENE) 20:33:07 435.000/436.395/437.385
CUBESAT XI-V 28 Nov 20:29:54 20:32:38 16° 295° (WNW) 20:35:20 437.345
CUBEBUG 2 28 Nov 20:34:44 20:37:27 17° 67° (ENE) 20:40:08 437.445
STRAND 1 28 Nov 20:34:44 20:38:14 19° 296° (WNW) 20:41:42 437.568
CUTE 1.7 + AOD 2 28 Nov 20:42:34 20:46:46 71° 259° (WSW) 20:51:00 437.475
BEESAT 3 28 Nov 20:45:51 20:48:50 19° 313° (NW) 20:51:50 437.485
RS-15 28 Nov 20:48:02 20:54:29 17° 3° (N) 21:01:02 29.354- 29.394
ZACube-1 28 Nov 20:56:09 20:59:19 21° 68° (ENE) 21:02:28 437.345
HO-68 28 Nov 20:56:54 21:03:55 56° 258° (WSW) 21:11:00 435.675
BEESAT 2 28 Nov 21:04:39 21:07:01 15° 316° (NW) 21:09:26 435.950
DOVE 4 28 Nov 21:05:56 21:10:31 77° 258° (WSW) 21:14:51 437.250
VELOX 1 28 Nov 21:08:10 21:11:26 20° 67° (ENE) 21:14:42 145.980
BRITE-PL 28 Nov 21:08:34 21:13:13 39° 261° (W) 21:17:33 437.365/2234.400
DELFI C3 28 Nov 21:11:48 21:15:49 65° 75° (ENE) 21:19:53 145.870
SEEDS 28 Nov 21:12:03 21:15:55 36° 262° (W) 21:19:49 437.485
CINEMA 3 28 Nov 21:19:07 21:23:29 89° 77° (ENE) 21:27:43 145.822/145.860
50 SAT 28 Nov 21:19:57 21:22:47 19° 68° (ENE) 21:25:37 437.505
ESTCUBE 1 28 Nov 21:20:45 21:21:23 10° 62° (ENE) 21:22:02 437.505/2401.250
UKube-1 28 Nov 21:20:51 21:25:12 89° 77° (ENE) 21:29:35 .
AAUSAT CUBESAT 2 28 Nov 21:22:34 21:26:25 37° 262° (W) 21:30:18 437.432
FUNcube-1 28 Nov 21:29:17 21:33:20 50° 74° (ENE) 21:37:21 145.935
Oscar 11 28 Nov 21:29:56 21:34:11 64° 259° (W) 21:38:29 145.826/435.025
AISAT 28 Nov 21:35:19 21:39:29 40° 71° (ENE) 21:43:40 437.250
ISS 28 Nov 21:36:51 21:39:36 25° 133° (SE) 21:42:22 145.825
CUBEBUG 1 28 Nov 21:38:22 21:40:57 15° 65° (ENE) 21:43:30 437.445
COMPASS 1 28 Nov 21:40:57 21:44:05 21° 266° (W) 21:47:15 437.405
CANX-2 28 Nov 21:46:57 21:48:45 12° 269° (W) 21:50:34 2200.000
HUMSAT D 28 Nov 21:50:57 21:54:58 53° 74° (ENE) 21:58:59 437.325/437.525
AIST 2 28 Nov 21:54:29 21:55:41 11° 319° (NW) 21:56:53 435.215
TIGRISAT 28 Nov 21:54:49 21:57:13 14° 92° (E) 21:59:38 435.000
DX 1 28 Nov 22:00:10 22:04:05 32° 262° (W) 22:08:01 434.975-435.025
UWE-3 28 Nov 22:03:19 22:07:26 52° 260° (W) 22:11:31 435.000/436.395/437.385
GOMX 1 28 Nov 22:04:42 22:07:12 14° 267° (W) 22:09:38 467.674
UNISAT 6 28 Nov 22:09:23 22:12:49 21° 95° (E) 22:16:18 437.425
CUBEBUG 2 28 Nov 22:09:56 22:13:53 37° 262° (W) 22:17:47 437.445
POLYITAN 1 28 Nov 22:20:56 22:23:50 18° 94° (E) 22:26:44 437.675
QB50P2 28 Nov 22:21:38 22:24:35 18° 94° (E) 22:27:31 145.880/145.840
DUCHIFAT 1 28 Nov 22:25:26 22:28:31 20° 94° (E) 22:31:36 145.980
TISAT 1 28 Nov 22:30:21 22:32:27 14° 65° (ENE) 22:34:34 437.305
ZACube-1 28 Nov 22:31:53 22:35:32 29° 263° (W) 22:39:10 437.345
ANTELSAT 28 Nov 22:37:51 22:42:09 43° 99° (E) 22:46:32 437.575/2403.000
VELOX 1 28 Nov 22:43:40 22:47:46 36° 262° (W) 22:51:54 145.980
NANOSAT C BR1 28 Nov 22:44:49 22:48:38 33° 97° (E) 22:52:27 145.865
SPROUT 28 Nov 22:49:02 22:52:06 19° 67° (ENE) 22:55:09 437.525
BUGSAT 1 28 Nov 22:49:21 22:52:55 29° 97° (E) 22:56:27 437.445
ESTCUBE 1 28 Nov 22:53:02 22:57:35 79° 257° (WSW) 23:02:10 437.505/2401.250
50 SAT 28 Nov 22:54:18 22:57:52 30° 263° (W) 23:01:27 437.505
QB50P1 28 Nov 22:55:01 22:59:03 44° 99° (E) 23:03:05 145.935-145.965
CUSAT 1 28 Nov 22:58:29 23:03:11 35° 78° (ENE) 23:09:11 437.405
RS-15 28 Nov 23:02:18 23:12:00 32° 37° (NE) 23:21:58 29.354- 29.394
FUNcube-1 28 Nov 23:08:24 23:09:58 12° 269° (W) 23:11:32 145.935
JUGNU 28 Nov 23:12:15 23:13:31 11° 175° (S) 23:14:47 437.505
CUBEBUG 1 28 Nov 23:12:36 23:16:54 48° 260° (W) 23:21:13 437.445
ISS 28 Nov 23:13:08 23:16:09 33° 329° (NNW) 23:19:10 145.825
AISAT 28 Nov 23:13:16 23:16:16 18° 266° (W) 23:19:16 437.250
POPSAT HIP 1 28 Nov 23:20:08 23:24:22 88° 103° (ESE) 23:28:36 437.405
TIGRISAT 28 Nov 23:29:53 23:34:12 50° 287° (WNW) 23:38:37 435.000
HUMSAT D 28 Nov 23:30:02 23:31:05 11° 269° (W) 23:32:09 437.325/437.525
DANDE 28 Nov 23:38:10 23:43:06 66° 81° (E) 23:49:45 436.750
UNISAT 6 28 Nov 23:45:37 23:49:39 34° 289° (WNW) 23:53:45 437.425
AUBIESAT-1 28 Nov 23:45:38 23:48:54 22° 61° (ENE) 23:52:23 437.475
BEESAT 28 Nov 23:47:42 23:50:34 16° 64° (ENE) 23:53:27 436.000
M-CUBED/EXP-1 PRIME 28 Nov 23:52:46 23:56:22 28° 63° (ENE) 00:00:14 437.505
POLYITAN 1 28 Nov 23:56:02 23:59:52 35° 289° (WNW) 00:03:43 437.675
QB50P2 28 Nov 23:56:45 00:00:35 34° 289° (WNW) 00:04:24 145.880/145.840
DUCHIFAT 1 29 Nov 00:00:42 00:04:26 31° 289° (WNW) 00:08:09 145.980
TISAT 1 29 Nov 00:03:42 00:07:51 51° 260° (W) 00:12:01 437.305
ANTELSAT 29 Nov 00:15:40 00:18:37 18° 294° (WNW) 00:21:36 437.575/2403.000
NANOSAT C BR1 29 Nov 00:21:17 00:24:17 19° 293° (WNW) 00:27:18 145.865
SPROUT 29 Nov 00:23:58 00:27:56 35° 262° (W) 00:31:54 437.525
BUGSAT 1 29 Nov 00:25:16 00:28:14 20° 292° (WNW) 00:31:11 437.445
MaSat-1 29 Nov 00:26:30 00:28:43 39° 248° (WSW) 00:31:02 437.345
QB50P1 29 Nov 00:32:09 00:34:35 15° 295° (WNW) 00:37:00 145.935-145.965
CUSAT 1 29 Nov 00:41:37 00:46:14 31° 265° (W) 00:52:00 437.405
ITUPSAT 1 29 Nov 00:43:13 00:47:55 57° 73° (ENE) 00:52:39 437.325
Oscar 19 29 Nov 00:44:53 00:48:07 17° 92° (E) 00:51:19 437.125/150
ISS 29 Nov 00:52:42 00:53:35 11° 348° (NNW) 00:54:28 145.825
SWISSCUBE 29 Nov 00:52:45 00:57:33 79° 75° (ENE) 01:02:23 437.505
KKS-1 29 Nov 00:58:56 01:01:44 17° 65° (ENE) 01:04:31 437.445
JUGNU 29 Nov 01:00:23 01:01:36 11° 185° (S) 01:02:50 437.505
RS-15 29 Nov 01:14:26 01:25:44 84° 242° (WSW) 01:37:33 29.354- 29.394
SRMSAT 29 Nov 01:16:38 01:18:36 12° 178° (S) 01:20:35 437.500
AUBIESAT-1 29 Nov 01:19:56 01:23:40 33° 259° (W) 01:27:43 437.475
BEESAT 29 Nov 01:23:16 01:27:57 54° 260° (W) 01:32:40 436.000
DANDE 29 Nov 01:23:28 01:26:30 15° 268° (W) 01:29:57 436.750
M-CUBED/EXP-1 PRIME 29 Nov 01:27:59 01:31:23 25° 261° (W) 01:35:02 437.505
YUBILEINY 29 Nov 01:29:01 01:36:43 36° 85° (E) 01:44:23 435.215
ITAMSAT 1 29 Nov 01:44:35 01:48:41 23° 95° (E) 01:52:44 435.822/435.867
STARS 29 Nov 01:46:21 01:50:21 35° 71° (ENE) 01:54:21 437.465
Oscar 19 29 Nov 02:22:42 02:27:45 55° 287° (WNW) 02:32:48 437.125/150
ITUPSAT 1 29 Nov 02:23:37 02:26:09 14° 268° (W) 02:28:41 437.325
KKS-1 29 Nov 02:33:45 02:38:00 44° 261° (W) 02:42:16 437.445
Gurwin Techsat 1B 29 Nov 02:35:24 02:40:26 42° 99° (E) 02:45:26 435.225
SO-50 29 Nov 02:54:11 02:58:39 70° 119° (ESE) 03:03:16 436.795
PCSat 29 Nov 03:21:23 03:25:52 26° 50° (NE) 03:30:19 145.827
ITAMSAT 1 29 Nov 03:23:29 03:28:16 39° 290° (WNW) 03:33:01 435.822/435.867
STARS 29 Nov 03:23:46 03:26:54 19° 266° (W) 03:30:04 437.465
YUBILEINY 29 Nov 03:24:49 03:33:12 48° 284° (WNW) 03:41:37 435.215
BEESAT 3 29 Nov 03:28:05 03:31:18 21° 48° (NE) 03:34:29 437.485
RS-15 29 Nov 03:29:25 03:36:28 19° 260° (W) 03:43:43 29.354- 29.394
HORYU 2 29 Nov 03:44:55 03:49:27 86° 284° (WNW) 03:53:57 437.375
BEESAT 2 29 Nov 03:46:05 03:49:43 27° 51° (NE) 03:53:19 435.950
MOZHAYETS 4 29 Nov 04:02:14 04:06:31 40° 72° (ENE) 04:10:51
ISS 29 Nov 04:06:11 04:09:01 26° 29° (NNE) 04:11:51 145.825
AO-7 29 Nov 04:08:33 04:16:35 48° 101° (E) 04:24:33 29.400- 29.500
Gurwin Techsat 1B 29 Nov 04:16:00 04:20:06 23° 295° (WNW) 04:24:13 435.225
JAS-2 29 Nov 04:27:07 04:32:03 21° 89° (E) 04:36:35 435.910
AIST 2 29 Nov 04:35:33 04:39:40 43° 54° (NE) 04:43:43 435.215
SO-50 29 Nov 04:36:53 04:39:43 16° 318° (NW) 04:42:35 436.795
PCSat 29 Nov 05:04:19 05:09:29 46° 248° (WSW) 05:14:36 145.827
BEESAT 3 29 Nov 05:05:46 05:09:39 38° 245° (WSW) 05:13:29 437.485
BEESAT 2 29 Nov 05:24:23 05:27:56 27° 247° (WSW) 05:31:27 435.950
CUTE-I 29 Nov 05:31:05 05:34:22 16° 92° (E) 05:37:37 437.470
O/OREOS (USA 219) 29 Nov 05:34:16 05:38:46 80° 292° (WNW) 05:43:15 437.305
PRISM 29 Nov 05:35:44 05:39:56 80° 76° (ENE) 05:44:11 437.425
MOZHAYETS 4 29 Nov 05:40:44 05:43:54 18° 267° (W) 05:47:05
ISS 29 Nov 05:42:39 05:45:42 35° 225° (SW) 05:48:44 145.825
CUBESAT XI-V 29 Nov 05:53:16 05:57:44 44° 72° (ENE) 06:02:13 437.345
AO-7 29 Nov 06:01:39 06:09:07 38° 299° (WNW) 06:16:35 29.400- 29.500
AIST 1 29 Nov 06:08:55 06:12:59 37° 78° (ENE) 06:17:00
STRAND 1 29 Nov 06:09:01 06:14:05 64° 73° (ENE) 06:19:11 437.568
JAS-2 29 Nov 06:10:56 06:17:40 58° 289° (WNW) 06:23:35 435.910
AIST 2 29 Nov 06:15:08 06:17:57 17° 250° (WSW) 06:20:44 435.215
Cubesat XI-IV 29 Nov 06:29:06 06:34:23 61° 101° (ESE) 06:39:37 437.490
CUTE-I 29 Nov 07:09:34 07:14:47 57° 288° (WNW) 07:19:57 437.470
GONETS M04 29 Nov 07:19:24 07:27:22 40° 86° (E) 07:35:22
CUBESAT XI-V 29 Nov 07:32:12 07:35:21 18° 268° (W) 07:38:31 437.345
AIST 1 29 Nov 07:47:36 07:50:17 16° 274° (W) 07:52:57
STRAND 1 29 Nov 07:51:06 07:53:41 14° 269° (W) 07:56:17 437.568
Cubesat XI-IV 29 Nov 08:10:38 08:13:56 17° 298° (WNW) 08:17:14 437.490
HO-68 29 Nov 08:26:23 08:32:35 31° 96° (E) 08:38:43 435.675
GOMX 1 29 Nov 08:28:41 08:30:55 14° 93° (E) 08:33:12 467.674
CUTE 1.7 + AOD 2 29 Nov 08:30:06 08:33:26 22° 94° (E) 08:36:46 437.475
TIGRISAT 29 Nov 08:54:47 08:55:42 11° 63° (ENE) 08:56:37 435.000
DELFI C3 29 Nov 08:56:56 08:57:38 10° 90° (E) 08:58:20 145.870
SEEDS 29 Nov 08:57:56 09:01:57 39° 98° (E) 09:05:57 437.485
DOVE 4 29 Nov 09:06:34 09:10:15 28° 97° (E) 09:14:02 437.250
AAUSAT CUBESAT 2 29 Nov 09:07:23 09:11:19 36° 98° (E) 09:15:14 437.432
UNISAT 6 29 Nov 09:08:39 09:11:16 16° 66° (ENE) 09:13:53 437.425
UKube-1 29 Nov 09:11:24 09:14:09 16° 93° (E) 09:16:54 .
BRITE-PL 29 Nov 09:14:12 09:18:21 68° 101° (ESE) 09:22:37 437.365/2234.400
POLYITAN 1 29 Nov 09:14:38 09:16:32 13° 64° (ENE) 09:18:26 437.675
QB50P2 29 Nov 09:15:05 09:17:03 13° 64° (ENE) 09:19:00 145.880/145.840
GONETS M04 29 Nov 09:15:49 09:24:02 43° 285° (WNW) 09:32:22
CINEMA 3 29 Nov 09:15:50 09:19:10 22° 95° (E) 09:22:36 145.822/145.860
DUCHIFAT 1 29 Nov 09:18:25 09:20:36 14° 65° (ENE) 09:22:47 145.980
Oscar 11 29 Nov 09:19:12 09:22:48 25° 95° (E) 09:26:23 145.826/435.025
FUNcube-1 29 Nov 09:21:50 09:22:44 11° 91° (E) 09:23:39 145.935
COMPASS 1 29 Nov 09:25:03 09:29:18 69° 101° (E) 09:33:32 437.405
CANX-2 29 Nov 09:31:02 09:35:18 66° 285° (WNW) 09:39:34 2200.000
ANTELSAT 29 Nov 09:36:29 09:40:16 32° 71° (ENE) 09:44:04 437.575/2403.000
NANOSAT C BR1 29 Nov 09:37:11 09:40:29 23° 68° (ENE) 09:43:48 145.865
BUGSAT 1 29 Nov 09:39:09 09:42:12 20° 68° (ENE) 09:45:15 437.445
QB50P1 29 Nov 09:47:12 09:50:52 29° 70° (ENE) 09:54:32 145.935-145.965
DX 1 29 Nov 09:49:34 09:53:45 46° 100° (E) 09:57:54 434.975-435.025
UWE-3 29 Nov 09:54:40 09:58:32 32° 97° (E) 10:02:27 435.000/436.395/437.385
CUBEBUG 2 29 Nov 10:01:58 10:06:06 45° 99° (E) 10:10:20 437.445
GOMX 1 29 Nov 10:05:17 10:09:15 43° 287° (WNW) 10:13:22 467.674
CUTE 1.7 + AOD 2 29 Nov 10:05:37 10:09:22 30° 289° (WNW) 10:13:06 437.475
POPSAT HIP 1 29 Nov 10:11:57 10:16:07 56° 74° (ENE) 10:20:16 437.405
HO-68 29 Nov 10:13:38 10:20:26 48° 293° (WNW) 10:27:12 435.675
ZACube-1 29 Nov 10:21:12 10:25:24 54° 100° (E) 10:29:41 437.345
TIGRISAT 29 Nov 10:27:40 10:31:53 65° 259° (W) 10:36:07 435.000
DELFI C3 29 Nov 10:29:12 10:33:16 57° 285° (WNW) 10:37:19 145.870
SEEDS 29 Nov 10:34:39 10:37:28 17° 293° (WNW) 10:40:17 437.485
VELOX 1 29 Nov 10:35:38 10:39:53 46° 100° (E) 10:44:06 145.980
50 SAT 29 Nov 10:36:07 10:39:56 37° 98° (E) 10:43:45 437.505
UNISAT 6 29 Nov 10:43:42 10:47:43 41° 261° (W) 10:51:46 437.425
AAUSAT CUBESAT 2 29 Nov 10:43:51 10:46:43 18° 293° (WNW) 10:49:34 437.432
DOVE 4 29 Nov 10:44:37 10:47:54 22° 291° (WNW) 10:51:16 437.250
UKube-1 29 Nov 10:46:25 10:50:29 40° 289° (WNW) 10:54:30 .
POLYITAN 1 29 Nov 10:47:52 10:52:01 53° 260° (W) 10:56:11 437.675
ESTCUBE 1 29 Nov 10:48:01 10:51:41 24° 95° (E) 10:55:19 437.505/2401.250
QB50P2 29 Nov 10:48:21 10:52:31 53° 260° (W) 10:56:41 145.880/145.840
DUCHIFAT 1 29 Nov 10:51:56 10:56:03 49° 260° (W) 11:00:10 145.980
CINEMA 3 29 Nov 10:52:40 10:56:23 30° 289° (WNW) 11:00:13 145.822/145.860
FUNcube-1 29 Nov 10:55:12 10:59:25 60° 285° (WNW) 11:03:43 145.935
Oscar 11 29 Nov 10:55:14 10:58:54 27° 291° (WNW) 11:02:33 145.826/435.025
CUBEBUG 1 29 Nov 11:03:20 11:07:16 32° 97° (E) 11:11:09 437.445
COMPASS 1 29 Nov 11:03:52 11:04:26 10° 297° (WNW) 11:05:01 437.405
AISAT 29 Nov 11:04:07 11:08:33 82° 284° (WNW) 11:12:58 437.250
HUMSAT D 29 Nov 11:12:28 11:16:37 63° 285° (WNW) 11:20:48 437.325/437.525
NANOSAT C BR1 29 Nov 11:12:32 11:16:13 28° 263° (W) 11:19:54 145.865
BUGSAT 1 29 Nov 11:13:38 11:17:29 33° 262° (W) 11:21:18 437.445
ANTELSAT 29 Nov 11:14:03 11:17:08 19° 266° (W) 11:20:15 437.575/2403.000
QB50P1 29 Nov 11:23:27 11:26:45 22° 265° (W) 11:30:03 145.935-145.965
SO-50 29 Nov 11:26:54 11:31:35 45° 54° (NE) 11:36:17 436.795
DX 1 29 Nov 11:27:03 11:29:36 15° 295° (WNW) 11:32:08 434.975-435.025
UWE-3 29 Nov 11:31:40 11:34:53 21° 292° (WNW) 11:38:10 435.000/436.395/437.385
CUBEBUG 2 29 Nov 11:39:57 11:42:28 15° 294° (WNW) 11:45:01 437.445
YUBILEINY 29 Nov 11:41:50 11:46:34 15° 62° (ENE) 11:51:16 435.215
TISAT 1 29 Nov 11:50:35 11:54:09 26° 96° (E) 11:57:42 437.305
POPSAT HIP 1 29 Nov 11:51:02 11:52:20 11° 269° (W) 11:53:38 437.405
ZACube-1 29 Nov 11:59:24 12:01:20 13° 295° (WNW) 12:03:18 437.345
Oscar 19 29 Nov 12:00:32 12:04:22 22° 65° (ENE) 12:08:13 437.125/150
SPROUT 29 Nov 12:11:56 12:16:00 42° 99° (E) 12:20:03 437.525
50 SAT 29 Nov 12:12:23 12:14:56 16° 293° (WNW) 12:17:28 437.505
CUSAT 1 29 Nov 12:12:28 12:14:37 23° 94° (E) 12:16:46 437.405
VELOX 1 29 Nov 12:13:26 12:16:05 16° 295° (WNW) 12:18:44 145.980
ESTCUBE 1 29 Nov 12:24:36 12:28:32 30° 291° (WNW) 12:32:27 437.505/2401.250
CUBEBUG 1 29 Nov 12:40:12 12:43:26 21° 293° (WNW) 12:46:38 437.445
ITUPSAT 1 29 Nov 12:46:40 12:49:39 16° 92° (E) 12:52:36 437.325
DANDE 29 Nov 12:54:51 12:57:32 73° 281° (W) 13:00:08 436.750
SWISSCUBE 29 Nov 12:55:27 12:59:12 22° 95° (E) 13:02:54 437.505
VERMONT LUNAR 29 Nov 12:55:41 12:59:04 40° 155° (SSE) 13:02:29 437.305
PHONESAT 2.4 29 Nov 13:00:30 13:03:49 32° 152° (SSE) 13:07:09 2401.200-2431.200
ITAMSAT 1 29 Nov 13:01:14 13:05:49 32° 68° (ENE) 13:10:24 435.822/435.867
AUBIESAT-1 29 Nov 13:03:58 13:07:56 25° 99° (E) 13:11:45 437.475
SO-50 29 Nov 13:08:11 13:11:50 21° 250° (WSW) 13:15:30 436.795
M-CUBED/EXP-1 PRIME 29 Nov 13:11:38 13:16:02 32° 101° (E) 13:20:15 437.505
AO-7 29 Nov 13:20:03 13:22:57 12° 46° (NE) 13:25:51 29.400- 29.500
BEESAT 29 Nov 13:25:03 13:29:36 42° 99° (E) 13:34:07 436.000
TISAT 1 29 Nov 13:26:31 13:29:52 23° 291° (WNW) 13:33:12 437.305
RS-15 29 Nov 13:31:16 13:36:18 14° 97° (E) 13:41:17 29.354- 29.394
YUBILEINY 29 Nov 13:36:04 13:44:49 82° 83° (E) 13:53:30 435.215
Oscar 19 29 Nov 13:38:34 13:43:24 43° 261° (W) 13:48:16 437.125/150
SPROUT 29 Nov 13:49:08 13:51:44 16° 294° (WNW) 13:54:21 437.525
MaSat-1 29 Nov 13:52:32 13:55:08 29° 111° (ESE) 13:57:33 437.345
Gurwin Techsat 1B 29 Nov 13:55:08 14:00:20 59° 73° (ENE) 14:05:34 435.225
O/OREOS (USA 219) 29 Nov 14:07:33 14:10:16 16° 56° (NE) 14:12:58 437.305
ITUPSAT 1 29 Nov 14:23:10 14:27:47 49° 288° (WNW) 14:32:23 437.325
KKS-1 29 Nov 14:26:21 14:30:29 37° 98° (E) 14:34:36 437.445
SWISSCUBE 29 Nov 14:32:45 14:37:07 35° 290° (WNW) 14:41:26 437.505
VERMONT LUNAR 29 Nov 14:33:50 14:37:27 74° 351° (N) 14:41:04 437.305
AUBIESAT-1 29 Nov 14:38:27 14:42:56 36° 295° (WNW) 14:47:15 437.475
PHONESAT 2.4 29 Nov 14:38:43 14:42:26 83° 348° (NNW) 14:46:09 2401.200-2431.200
JAS-2 29 Nov 14:40:10 14:42:45 12° 53° (NE) 14:45:20 435.910
ITAMSAT 1 29 Nov 14:40:45 14:45:15 29° 264° (W) 14:49:46 435.822/435.867
HORYU 2 29 Nov 14:42:11 14:46:36 75° 75° (ENE) 14:51:02 437.375
M-CUBED/EXP-1 PRIME 29 Nov 14:46:43 14:50:54 29° 297° (WNW) 14:54:58 437.505
BEESAT 29 Nov 15:03:42 15:07:08 20° 295° (WNW) 15:10:32 436.000
AO-7 29 Nov 15:05:55 15:13:57 58° 66° (ENE) 15:22:03 29.400- 29.500
STARS 29 Nov 15:13:40 15:18:05 87° 103° (ESE) 15:22:29 437.465
YUBILEINY 29 Nov 15:34:58 15:40:27 19° 281° (WNW) 15:45:57 435.215
RS-15 29 Nov 15:35:41 15:46:37 75° 116° (ESE) 15:57:30 29.354- 29.394
Gurwin Techsat 1B 29 Nov 15:37:31 15:40:40 16° 268° (W) 15:43:51 435.225
O/OREOS (USA 219) 29 Nov 15:45:37 15:49:58 51° 253° (WSW) 15:54:18 437.305
MOZHAYETS 4 29 Nov 16:01:34 16:02:34 11° 89° (E) 16:03:35
KKS-1 29 Nov 16:03:43 16:06:51 19° 294° (WNW) 16:09:59 437.445
VERMONT LUNAR 29 Nov 16:12:27 16:16:04 72° 8° (N) 16:19:41 437.305
Cubesat XI-IV 29 Nov 16:14:18 16:15:58 11° 59° (ENE) 16:17:38 437.490
PHONESAT 2.4 29 Nov 16:17:40 16:21:22 68° 5° (N) 16:25:04 2401.200-2431.200
JAS-2 29 Nov 16:18:39 16:26:11 59° 71° (ENE) 16:33:50 435.910
CUTE-I 29 Nov 16:51:27 16:55:45 25° 66° (ENE) 17:00:04 437.470
AO-7 29 Nov 17:00:06 17:07:04 30° 264° (W) 17:14:07 29.400- 29.500
PRISM 29 Nov 17:22:20 17:24:12 13° 92° (E) 17:26:03 437.425
GONETS M04 29 Nov 17:32:07 17:37:44 18° 63° (ENE) 17:43:17
MOZHAYETS 4 29 Nov 17:35:36 17:40:15 69° 285° (WNW) 17:44:51
Cubesat XI-IV 29 Nov 17:49:51 17:55:14 88° 76° (ENE) 18:00:37 437.490
RS-15 29 Nov 17:50:21 17:59:58 34° 321° (NW) 18:09:44 29.354- 29.394
VERMONT LUNAR 29 Nov 17:51:00 17:54:28 43° 204° (SSW) 17:57:55 437.305
CUBESAT XI-V 29 Nov 17:53:41 17:55:25 12° 90° (E) 17:57:09 437.345
PHONESAT 2.4 29 Nov 17:56:31 18:00:09 55° 202° (SSW) 18:03:47 2401.200-2431.200
PCSat 29 Nov 18:02:08 18:06:37 27° 108° (ESE) 18:11:08 145.827
JAS-2 29 Nov 18:05:02 18:11:28 29° 268° (W) 18:18:04 435.910
STRAND 1 29 Nov 18:21:39 18:25:43 24° 95° (E) 18:29:45 437.568
AIST 2 29 Nov 18:35:19 18:37:04 12° 108° (ESE) 18:38:50 435.215
